Вернуться в каталог

DELTA 1 DEB

LostLEO
NORAD 28670·DEBRIS·🇺🇸 United States

Запущен Jul 4, 1968 с Vandenberg Space Force Base

Loading…

Ближайшие Пролёты (ближайшие 24 часа)

TLE

УстаревшееSource: Space-Track

Эпоха: Nov 1, 2021, 06:57 UTC

1 28670U 68055T   21305.28989341  .00022810  00000-0  86683-2 0  9998
2 28670 120.5195  39.0970 0865140 247.2636 103.4696 13.13373388787719

Отслеживайте DELTA 1 DEB в реальном времени с AllMySat

Download on the App Store